SQ3VAS-10 Weather Reports


time (UTC)temp
F
wind
direction
speed
knots
gust
knots
rain 1hr
in
rain 24hr
in
rain mn
in
humidity
%
barometer
mb
20260507052512 50 0.0 0.0 0.00 0.00 0.00 77 1012.9
20260507051540 50 0.0 0.0 0.00 0.00 0.00 80 1012.9
20260507045636 49 0.0 0.0 0.00 0.00 0.00 80 1012.8
20260507044704 49 0.0 0.0 0.00 0.00 0.00 81 1012.7
20260507043732 49 0.0 0.0 0.00 0.00 0.00 81 1012.7
20260507042800 49 0.0 0.0 0.00 0.00 0.00 81 1012.6
20260507041828 49 0.0 0.0 0.00 0.00 0.00 82 1012.4
20260507040856 49 0.0 0.0 0.00 0.00 0.00 82 1012.4
20260507034952 49 0.0 0.0 0.00 0.00 0.00 83 1012.1
20260507034020 49 0.0 0.0 0.00 0.00 0.00 82 1012.0
20260507033048 48 0.0 0.0 0.00 0.00 0.00 84 1011.8
20260507032117 48 0.0 0.0 0.00 0.00 0.00 84 1011.7
20260507031145 48 0.0 0.0 0.00 0.00 0.00 85 1011.7
20260507030213 48 0.0 0.0 0.00 0.00 0.00 84 1011.6
20260507025241 49 0.0 0.0 0.00 0.00 0.00 83 1011.7
20260507024309 48 0.0 0.0 0.00 0.00 0.00 84 1011.5
20260507023337 48 0.0 0.0 0.00 0.00 0.00 85 1011.5
20260507022406 48 0.0 0.0 0.00 0.00 0.00 85 1011.5
20260507021434 48 0.0 0.0 0.00 0.00 0.00 85 1011.5
20260507020502 48 0.0 0.0 0.00 0.00 0.00 85 1011.5
20260507015530 48 0.0 0.0 0.00 0.00 0.00 85 1011.3
20260507014558 48 0.0 0.0 0.00 0.00 0.00 84 1011.3
20260507013627 48 0.0 0.0 0.00 0.00 0.00 85 1011.3
20260507012655 48 0.0 0.0 0.00 0.00 0.00 85 1011.3
20260507011723 48 0.0 0.0 0.00 0.00 0.00 86 1011.3
20260507010752 48 0.0 0.0 0.00 0.00 0.00 85 1011.2
20260507005820 48 0.0 0.0 0.00 0.00 0.00 85 1010.9
20260507004848 48 0.0 0.0 0.00 0.00 0.00 85 1010.9
20260507003916 48 0.0 0.0 0.00 0.00 0.00 85 1011.0
20260507002945 48 0.0 0.0 0.00 0.00 0.00 86 1010.8
20260507002012 49 0.0 0.0 0.00 0.00 0.00 84 1010.8
20260507001040 49 0.0 0.0 0.00 0.00 0.00 85 1011.0
20260507000108 49 0.0 0.0 0.00 0.00 0.00 84 1011.0
20260506235136 49 0.0 0.0 0.00 0.00 0.00 85 1010.9
20260506234204 49 0.0 0.0 0.00 0.00 0.00 85 1010.9
20260506233232 49 0.0 0.0 0.00 0.00 0.00 84 1010.9
20260506232300 49 0.0 0.0 0.00 0.00 0.00 85 1010.7
20260506231328 49 0.0 0.0 0.00 0.00 0.00 85 1010.8
20260506230356 49 0.0 0.0 0.00 0.00 0.00 86 1010.6
20260506225425 49 0.0 0.0 0.00 0.00 0.00 84 1010.4
20260506224452 49 0.0 0.0 0.00 0.00 0.00 85 1010.4
20260506223520 49 0.0 0.0 0.00 0.00 0.00 83 1010.4
20260506222547 49 0.0 0.0 0.00 0.00 0.00 83 1010.4
20260506221615 49 0.0 0.0 0.00 0.00 0.00 84 1010.6
20260506220643 49 0.0 0.0 0.00 0.00 0.00 84 1010.6
20260506215712 49 0.0 0.0 0.00 0.00 0.00 84 1010.5
20260506214740 49 0.0 0.0 0.00 0.00 0.00 84 1010.6
20260506213808 50 0.0 0.0 0.00 0.00 0.00 84 1010.4
20260506212836 49 0.0 0.0 0.00 0.00 0.00 85 1010.4
20260506211904 49 0.0 0.0 0.00 0.00 0.00 85 1010.2
20260506210932 49 0.0 0.0 0.00 0.00 0.00 84 1010.1
20260506210000 50 0.0 0.0 0.00 0.00 0.00 83 1009.9
20260506205028 50 0.0 0.0 0.00 0.00 0.00 83 1010.0
20260506204057 50 0.0 0.0 0.00 0.00 0.00 84 1009.9
20260506203125 50 0.0 0.0 0.00 0.00 0.00 84 1009.6
20260506202156 51 0.0 0.0 0.00 0.00 0.00 83 1009.6
20260506201221 51 0.0 0.0 0.00 0.00 0.00 84 1009.6
20260506200249 50 0.0 0.0 0.00 0.00 0.00 84 1009.6
20260506195317 51 0.0 0.0 0.00 0.00 0.00 84 1009.6
20260506194345 50 0.0 0.0 0.00 0.00 0.00 85 1009.6
20260506193413 51 0.0 0.0 0.00 0.00 0.00 83 1009.5
20260506192441 51 0.0 0.0 0.00 0.00 0.00 84 1009.6
20260506191510 51 0.0 0.0 0.00 0.00 0.00 86 1009.3
20260506190537 51 0.0 0.0 0.00 0.00 0.00 86 1009.3
20260506185605 51 0.0 0.0 0.00 0.00 0.00 87 1009.2
20260506184634 51 0.0 0.0 0.00 0.00 0.00 87 1009.0
20260506183702 51 0.0 0.0 0.00 0.00 0.00 87 1008.9
20260506182731 52 0.0 0.0 0.00 0.00 0.00 86 1008.8
20260506181800 52 0.0 0.0 0.00 0.00 0.00 87 1008.7
20260506180828 53 0.0 0.0 0.00 0.00 0.00 86 1008.5
20260506175856 53 0.0 0.0 0.00 0.00 0.00 84 1008.4
20260506174924 53 0.0 0.0 0.00 0.00 0.00 85 1008.5
20260506173953 53 0.0 0.0 0.00 0.00 0.00 84 1008.5
20260506173021 54 0.0 0.0 0.00 0.00 0.00 84 1008.5
20260506172050 54 0.0 0.0 0.00 0.00 0.00 83 1008.4
20260506171118 54 0.0 0.0 0.00 0.00 0.00 82 1008.3
20260506170146 55 0.0 0.0 0.00 0.00 0.00 81 1008.2
20260506165214 55 0.0 0.0 0.00 0.00 0.00 81 1008.1
20260506164242 54 0.0 0.0 0.00 0.00 0.00 82 1008.1
20260506163310 55 0.0 0.0 0.00 0.00 0.00 79 1008.1
20260506162338 56 0.0 0.0 0.00 0.00 0.00 77 1008.0
20260506161406 55 0.0 0.0 0.00 0.00 0.00 81 1007.9
20260506160434 55 0.0 0.0 0.00 0.00 0.00 79 1008.0
20260506155504 56 0.0 0.0 0.00 0.00 0.00 78 1008.0
20260506154527 55 0.0 0.0 0.00 0.00 0.00 79 1008.0
20260506153556 55 0.0 0.0 0.00 0.00 0.00 78 1008.0
20260506152623 57 0.0 0.0 0.00 0.00 0.00 78 1007.9
20260506151650 56 0.0 0.0 0.00 0.00 0.00 80 1008.0
20260506150718 55 0.0 0.0 0.00 0.00 0.00 81 1007.9
20260506145746 55 0.0 0.0 0.00 0.00 0.00 81 1007.8
20260506144813 55 0.0 0.0 0.00 0.00 0.00 81 1007.7
20260506143841 55 0.0 0.0 0.00 0.00 0.00 84 1007.7
20260506142909 54 0.0 0.0 0.00 0.00 0.00 83 1007.7
20260506141937 54 0.0 0.0 0.00 0.00 0.00 82 1007.7
20260506141005 54 0.0 0.0 0.00 0.00 0.00 85 1007.7
20260506140034 55 0.0 0.0 0.00 0.00 0.00 84 1007.4
20260506135059 54 0.0 0.0 0.00 0.00 0.00 87 1007.5
20260506134126 54 0.0 0.0 0.00 0.00 0.00 88 1007.5
20260506133154 53 0.0 0.0 0.00 0.00 0.00 91 1007.4
20260506132223 53 0.0 0.0 0.00 0.00 0.00 89 1007.3
20260506131251 53 0.0 0.0 0.00 0.00 0.00 90 1007.4
20260506130319 54 0.0 0.0 0.00 0.00 0.00 89 1007.4
20260506125347 54 0.0 0.0 0.00 0.00 0.00 90 1007.2
20260506124416 54 0.0 0.0 0.00 0.00 0.00 89 1007.3
20260506123444 56 0.0 0.0 0.00 0.00 0.00 88 1007.2
20260506122512 56 0.0 0.0 0.00 0.00 0.00 89 1006.9
20260506121539 55 0.0 0.0 0.00 0.00 0.00 88 1006.9
20260506120607 56 0.0 0.0 0.00 0.00 0.00 89 1006.8
20260506115635 56 0.0 0.0 0.00 0.00 0.00 91 1006.6
20260506114703 57 0.0 0.0 0.00 0.00 0.00 90 1006.6
20260506113730 56 0.0 0.0 0.00 0.00 0.00 92 1006.5
20260506112758 55 0.0 0.0 0.00 0.00 0.00 94 1006.6
20260506111826 54 0.0 0.0 0.00 0.00 0.00 95 1006.7
20260506110854 55 0.0 0.0 0.00 0.00 0.00 94 1006.7
20260506105922 54 0.0 0.0 0.00 0.00 0.00 94 1006.6
20260506104950 55 0.0 0.0 0.00 0.00 0.00 94 1006.5
20260506104018 54 0.0 0.0 0.00 0.00 0.00 94 1006.6
20260506103045 55 0.0 0.0 0.00 0.00 0.00 94 1006.4
20260506102113 54 0.0 0.0 0.00 0.00 0.00 95 1006.4
20260506101140 54 0.0 0.0 0.00 0.00 0.00 95 1006.3
20260506100208 54 0.0 0.0 0.00 0.00 0.00 95 1006.3
20260506095236 53 0.0 0.0 0.00 0.00 0.00 95 1006.5
20260506094304 53 0.0 0.0 0.00 0.00 0.00 95 1006.5
20260506093332 54 0.0 0.0 0.00 0.00 0.00 95 1006.3
20260506092400 53 0.0 0.0 0.00 0.00 0.00 96 1006.4
20260506091429 53 0.0 0.0 0.00 0.00 0.00 96 1006.4
20260506090457 53 0.0 0.0 0.00 0.00 0.00 96 1006.3
20260506085526 53 0.0 0.0 0.00 0.00 0.00 95 1006.3
20260506084553 53 0.0 0.0 0.00 0.00 0.00 97 1006.3
20260506083621 53 0.0 0.0 0.00 0.00 0.00 96 1006.2
20260506082649 53 0.0 0.0 0.00 0.00 0.00 96 1006.2
20260506081717 52 0.0 0.0 0.00 0.00 0.00 97 1006.3
20260506080745 53 0.0 0.0 0.00 0.00 0.00 96 1006.3
20260506072936 53 0.0 0.0 0.00 0.00 0.00 97 1006.2
20260506072005 53 0.0 0.0 0.00 0.00 0.00 97 1006.3
20260506071031 53 0.0 0.0 0.00 0.00 0.00 98 1006.3
20260506062253 52 0.0 0.0 0.00 0.00 0.00 98 1006.1
20260506061315 53 0.0 0.0 0.00 0.00 0.00 96 1006.0
20260506060345 53 0.0 0.0 0.00 0.00 0.00 96 1006.2